| time (UTC) | temp F | wind direction | speed knots | gust knots | rain 1hr in | rain 24hr in | rain mn in | humidity % | barometer mb |
| 20260508095032 | 39 | 0.0 | 0.0 | 0.00 | 0.00 | 0.00 | 99 | 1014.9 | |
| 20260508094017 | 39 | 0.0 | 0.0 | 0.00 | 0.00 | 0.00 | 99 | 1014.9 | |
| 20260508093021 | 40 | 0.0 | 0.0 | 0.00 | 0.00 | 0.00 | 99 | 1015.0 | |
| 20260508092044 | 40 | 0.0 | 0.0 | 0.00 | 0.00 | 0.00 | 99 | 1015.0 | |
| 20260508091028 | 41 | 0.0 | 0.0 | 0.00 | 0.00 | 0.00 | 99 | 1015.0 | |
| 20260508090031 | 41 | 0.0 | 0.0 | 0.00 | 0.00 | 0.00 | 99 | 1015.0 | |
| 20260508085017 | 42 | 0.0 | 0.0 | 0.00 | 0.00 | 0.00 | 99 | 1014.9 | |
| 20260508084021 | 42 | 0.0 | 0.0 | 0.00 | 0.00 | 0.00 | 99 | 1015.0 | |
| 20260508083044 | 42 | 0.0 | 0.0 | 0.00 | 0.00 | 0.00 | 99 | 1015.0 | |
| 20260508082028 | 41 | 0.0 | 0.0 | 0.00 | 0.00 | 0.00 | 98 | 1015.0 | |
| 20260508081032 | 41 | 0.0 | 0.0 | 0.00 | 0.00 | 0.00 | 98 | 1015.0 | |
| 20260508080057 | 42 | 0.0 | 0.0 | 0.00 | 0.00 | 0.00 | 98 | 1015.1 | |
| 20260508075020 | 42 | 0.0 | 0.0 | 0.00 | 0.00 | 0.00 | 98 | 1015.2 | |
| 20260508074024 | 42 | 0.0 | 0.0 | 0.00 | 0.00 | 0.00 | 98 | 1015.4 | |
| 20260508073028 | 41 | 0.0 | 0.0 | 0.00 | 0.00 | 0.00 | 98 | 1015.4 | |
| 20260508072031 | 41 | 0.0 | 0.0 | 0.00 | 0.00 | 0.00 | 98 | 1015.5 | |
| 20260508071017 | 41 | 0.0 | 0.0 | 0.00 | 0.00 | 0.00 | 99 | 1015.6 | |
| 20260508070020 | 41 | 0.0 | 0.0 | 0.00 | 0.00 | 0.00 | 99 | 1015.6 | |
| 20260508065024 | 41 | 0.0 | 0.0 | 0.00 | 0.00 | 0.00 | 99 | 1015.4 | |
| 20260508064108 | 40 | 0.0 | 0.0 | 0.00 | 0.00 | 0.00 | 99 | 1015.2 | |
| 20260508063025 | 40 | 0.0 | 0.0 | 0.00 | 0.00 | 0.00 | 99 | 1015.1 | |
| 20260508062017 | 40 | 0.0 | 0.0 | 0.00 | 0.00 | 0.00 | 99 | 1015.1 | |
| 20260508061020 | 40 | 0.0 | 0.0 | 0.00 | 0.00 | 0.00 | 99 | 1015.1 | |
| 20260508060018 | 40 | 0.0 | 0.0 | 0.00 | 0.00 | 0.00 | 99 | 1015.1 | |
| 20260508055016 | 40 | 0.0 | 0.0 | 0.00 | 0.00 | 0.00 | 98 | 1015.1 | |
| 20260508054031 | 39 | 0.0 | 0.0 | 0.00 | 0.00 | 0.00 | 97 | 1015.4 | |
| 20260508053017 | 39 | 0.0 | 0.0 | 0.00 | 0.00 | 0.00 | 97 | 1015.4 | |
| 20260508052020 | 39 | 0.0 | 0.0 | 0.00 | 0.00 | 0.00 | 97 | 1015.5 | |
| 20260508051024 | 39 | 0.0 | 0.0 | 0.00 | 0.00 | 0.00 | 95 | 1015.6 | |
| 20260508050028 | 39 | 0.0 | 0.0 | 0.00 | 0.00 | 0.00 | 95 | 1015.6 | |
| 20260508045031 | 39 | 0.0 | 0.0 | 0.00 | 0.00 | 0.00 | 95 | 1015.6 | |
| 20260508044037 | 39 | 0.0 | 0.0 | 0.00 | 0.00 | 0.00 | 97 | 1015.4 | |
| 20260508043020 | 40 | 0.0 | 0.0 | 0.00 | 0.00 | 0.00 | 96 | 1015.5 | |
| 20260508042044 | 40 | 0.0 | 0.0 | 0.00 | 0.00 | 0.00 | 95 | 1015.6 | |
| 20260508041028 | 40 | 0.0 | 0.0 | 0.00 | 0.00 | 0.00 | 94 | 1015.4 | |
| 20260508040031 | 40 | 0.0 | 0.0 | 0.00 | 0.00 | 0.00 | 92 | 1015.4 | |
| 20260508035017 | 40 | 0.0 | 0.0 | 0.00 | 0.00 | 0.00 | 88 | 1015.2 | |
| 20260508034020 | 41 | 0.0 | 0.0 | 0.00 | 0.00 | 0.00 | 89 | 1015.4 | |
| 20260508033024 | 41 | 0.0 | 0.0 | 0.00 | 0.00 | 0.00 | 89 | 1015.3 | |
| 20260508032027 | 41 | 0.0 | 0.0 | 0.00 | 0.00 | 0.00 | 85 | 1015.3 | |
| 20260508031031 | 41 | 0.0 | 0.0 | 0.00 | 0.00 | 0.00 | 85 | 1015.4 | |
| 20260508030017 | 42 | 0.0 | 0.0 | 0.00 | 0.00 | 0.00 | 82 | 1015.4 | |
| 20260508025040 | 42 | 0.0 | 0.0 | 0.00 | 0.00 | 0.00 | 81 | 1015.4 | |
| 20260508024024 | 43 | 0.0 | 0.0 | 0.00 | 0.00 | 0.00 | 80 | 1015.4 | |
| 20260508023027 | 43 | 0.0 | 0.0 | 0.00 | 0.00 | 0.00 | 80 | 1015.3 | |
| 20260508022025 | 44 | 0.0 | 0.0 | 0.00 | 0.00 | 0.00 | 78 | 1015.2 | |
| 20260508021036 | 45 | 0.0 | 0.0 | 0.00 | 0.00 | 0.00 | 76 | 1015.2 | |
| 20260508020020 | 45 | 0.0 | 0.0 | 0.00 | 0.00 | 0.00 | 76 | 1015.2 | |
| 20260508015018 | 45 | 0.0 | 0.0 | 0.00 | 0.00 | 0.00 | 71 | 1015.0 | |
| 20260508014016 | 46 | 0.0 | 0.0 | 0.00 | 0.00 | 0.00 | 69 | 1015.0 | |
| 20260508013031 | 47 | 0.0 | 0.0 | 0.00 | 0.00 | 0.00 | 67 | 1014.9 | |
| 20260508012017 | 48 | 0.0 | 0.0 | 0.00 | 0.00 | 0.00 | 64 | 1014.8 | |
| 20260508011020 | 49 | 0.0 | 0.0 | 0.00 | 0.00 | 0.00 | 61 | 1014.6 | |
| 20260508010024 | 50 | 0.0 | 0.0 | 0.00 | 0.00 | 0.00 | 58 | 1014.5 | |
| 20260508005027 | 52 | 0.0 | 0.0 | 0.00 | 0.00 | 0.00 | 55 | 1014.6 | |
| 20260508004031 | 53 | 0.0 | 0.0 | 0.00 | 0.00 | 0.00 | 54 | 1014.5 | |
| 20260508003036 | 55 | 0.0 | 0.0 | 0.00 | 0.00 | 0.00 | 50 | 1014.5 | |
| 20260508002020 | 56 | 77 | 0.9 | 2.6 | 0.00 | 0.00 | 0.00 | 47 | 1014.4 |
| 20260508001023 | 57 | 225 | 0.0 | 0.9 | 0.00 | 0.00 | 0.00 | 46 | 1014.3 |
| 20260508000027 | 57 | 235 | 0.9 | 2.6 | 0.00 | 0.00 | 0.00 | 44 | 1014.2 |
| 20260507235031 | 57 | 155 | 2.6 | 4.3 | 0.00 | 0.00 | 0.00 | 44 | 1014.1 |
| 20260507234016 | 58 | 195 | 2.6 | 4.3 | 0.00 | 0.00 | 0.00 | 43 | 1013.9 |
| 20260507233020 | 59 | 327 | 0.9 | 1.7 | 0.00 | 0.00 | 0.00 | 43 | 1013.9 |
| 20260507232024 | 59 | 350 | 1.7 | 3.5 | 0.00 | 0.00 | 0.00 | 43 | 1013.9 |
| 20260507231027 | 59 | 82 | 1.7 | 4.3 | 0.00 | 0.00 | 0.00 | 43 | 1014.0 |
| 20260507230030 | 58 | 277 | 1.7 | 3.5 | 0.00 | 0.00 | 0.00 | 45 | 1014.2 |
| 20260507225016 | 59 | 212 | 2.6 | 3.5 | 0.00 | 0.00 | 0.00 | 42 | 1014.2 |
| 20260507224020 | 60 | 282 | 3.5 | 6.1 | 0.00 | 0.00 | 0.00 | 41 | 1014.2 |
| 20260507223023 | 62 | 251 | 3.5 | 7.0 | 0.00 | 0.00 | 0.00 | 39 | 1014.1 |
| 20260507222027 | 62 | 6 | 1.7 | 4.3 | 0.00 | 0.00 | 0.00 | 42 | 1014.1 |
| 20260507221025 | 59 | 112 | 2.6 | 6.1 | 0.00 | 0.00 | 0.00 | 44 | 1014.1 |
| 20260507220016 | 62 | 276 | 2.6 | 3.5 | 0.00 | 0.00 | 0.00 | 41 | 1013.9 |
| 20260507215020 | 63 | 268 | 4.3 | 6.1 | 0.00 | 0.00 | 0.00 | 41 | 1013.8 |
| 20260507214018 | 63 | 274 | 3.5 | 7.0 | 0.00 | 0.00 | 0.00 | 40 | 1013.8 |
| 20260507213016 | 63 | 153 | 4.3 | 7.0 | 0.00 | 0.00 | 0.00 | 41 | 1013.6 |
| 20260507212031 | 64 | 217 | 4.3 | 6.1 | 0.00 | 0.00 | 0.00 | 41 | 1013.5 |
| 20260507211016 | 62 | 256 | 4.3 | 7.0 | 0.00 | 0.00 | 0.00 | 43 | 1013.4 |
| 20260507210020 | 63 | 307 | 3.5 | 6.1 | 0.00 | 0.00 | 0.00 | 43 | 1013.3 |
| 20260507205023 | 63 | 239 | 4.3 | 6.1 | 0.00 | 0.00 | 0.00 | 43 | 1013.2 |
| 20260507204027 | 63 | 170 | 3.5 | 7.0 | 0.00 | 0.00 | 0.00 | 42 | 1013.3 |
| 20260507203031 | 64 | 57 | 3.5 | 5.2 | 0.00 | 0.00 | 0.00 | 42 | 1013.2 |
| 20260507202016 | 65 | 163 | 3.5 | 5.2 | 0.00 | 0.00 | 0.00 | 40 | 1013.2 |
| 20260507201020 | 66 | 124 | 2.6 | 5.2 | 0.00 | 0.00 | 0.00 | 39 | 1013.1 |
| 20260507200043 | 63 | 296 | 2.6 | 4.3 | 0.00 | 0.00 | 0.00 | 42 | 1013.3 |
| 20260507195027 | 65 | 248 | 3.5 | 6.1 | 0.00 | 0.00 | 0.00 | 40 | 1013.3 |
| 20260507194031 | 66 | 74 | 2.6 | 6.1 | 0.00 | 0.00 | 0.00 | 40 | 1013.4 |
| 20260507193016 | 66 | 343 | 1.7 | 4.3 | 0.00 | 0.00 | 0.00 | 38 | 1013.3 |
| 20260507192040 | 66 | 208 | 2.6 | 5.2 | 0.00 | 0.00 | 0.00 | 38 | 1013.3 |
| 20260507191024 | 66 | 257 | 2.6 | 4.3 | 0.00 | 0.00 | 0.00 | 37 | 1013.4 |
| 20260507190047 | 66 | 142 | 4.3 | 7.0 | 0.00 | 0.00 | 0.00 | 37 | 1013.5 |
| 20260507185031 | 67 | 230 | 3.5 | 6.1 | 0.00 | 0.00 | 0.00 | 37 | 1013.6 |
| 20260507184016 | 66 | 211 | 3.5 | 7.0 | 0.00 | 0.00 | 0.00 | 37 | 1013.5 |
| 20260507183019 | 66 | 254 | 2.6 | 5.2 | 0.00 | 0.00 | 0.00 | 39 | 1013.5 |
| 20260507182043 | 67 | 195 | 3.5 | 7.8 | 0.00 | 0.00 | 0.00 | 40 | 1013.6 |
| 20260507181027 | 66 | 235 | 3.5 | 6.1 | 0.00 | 0.00 | 0.00 | 39 | 1013.7 |
| 20260507180024 | 67 | 230 | 4.3 | 6.1 | 0.00 | 0.00 | 0.00 | 39 | 1013.7 |
| 20260507175036 | 66 | 214 | 2.6 | 4.3 | 0.00 | 0.00 | 0.00 | 41 | 1013.9 |
| 20260507174020 | 64 | 76 | 2.6 | 5.2 | 0.00 | 0.00 | 0.00 | 41 | 1013.8 |
| 20260507173017 | 63 | 90 | 2.6 | 3.5 | 0.00 | 0.00 | 0.00 | 42 | 1014.0 |
| 20260507172027 | 66 | 199 | 3.5 | 5.2 | 0.00 | 0.00 | 0.00 | 40 | 1014.1 |
| 20260507171030 | 65 | 19 | 2.6 | 4.3 | 0.00 | 0.00 | 0.00 | 39 | 1014.2 |
| 20260507170016 | 66 | 162 | 2.6 | 5.2 | 0.00 | 0.00 | 0.00 | 41 | 1014.2 |
| 20260507165019 | 65 | 247 | 3.5 | 5.2 | 0.00 | 0.00 | 0.00 | 41 | 1014.3 |
| 20260507164023 | 64 | 344 | 3.5 | 7.0 | 0.00 | 0.00 | 0.00 | 41 | 1014.3 |
| 20260507163026 | 65 | 223 | 2.6 | 3.5 | 0.00 | 0.00 | 0.00 | 42 | 1014.4 |
| 20260507162050 | 64 | 221 | 3.5 | 4.3 | 0.00 | 0.00 | 0.00 | 42 | 1014.4 |
| 20260507161015 | 64 | 286 | 3.5 | 7.8 | 0.00 | 0.00 | 0.00 | 42 | 1014.3 |
| 20260507160019 | 64 | 167 | 2.6 | 4.3 | 0.00 | 0.00 | 0.00 | 42 | 1014.2 |
| 20260507155022 | 64 | 263 | 2.6 | 5.2 | 0.00 | 0.00 | 0.00 | 44 | 1014.3 |
| 20260507154026 | 63 | 264 | 3.5 | 7.0 | 0.00 | 0.00 | 0.00 | 44 | 1014.3 |
| 20260507153030 | 63 | 242 | 2.6 | 6.1 | 0.00 | 0.00 | 0.00 | 44 | 1014.3 |
| 20260507152015 | 63 | 210 | 2.6 | 5.2 | 0.00 | 0.00 | 0.00 | 45 | 1014.4 |
| 20260507151019 | 62 | 238 | 3.5 | 5.2 | 0.00 | 0.00 | 0.00 | 45 | 1014.4 |
| 20260507150043 | 61 | 224 | 2.6 | 4.3 | 0.00 | 0.00 | 0.00 | 46 | 1014.6 |
| 20260507145026 | 60 | 336 | 2.6 | 5.2 | 0.00 | 0.00 | 0.00 | 45 | 1014.6 |
| 20260507144030 | 61 | 253 | 3.5 | 5.2 | 0.00 | 0.00 | 0.00 | 45 | 1014.7 |
| 20260507143015 | 61 | 271 | 1.7 | 2.6 | 0.00 | 0.00 | 0.00 | 51 | 1014.8 |
| 20260507142019 | 60 | 208 | 2.6 | 5.2 | 0.00 | 0.00 | 0.00 | 55 | 1015.0 |
| 20260507141023 | 59 | 207 | 1.7 | 3.5 | 0.00 | 0.00 | 0.00 | 59 | 1015.1 |
| 20260507140026 | 58 | 256 | 1.7 | 4.3 | 0.00 | 0.00 | 0.00 | 61 | 1015.2 |
| 20260507135024 | 57 | 225 | 1.7 | 3.5 | 0.00 | 0.00 | 0.00 | 65 | 1015.4 |
| 20260507134035 | 57 | 269 | 1.7 | 3.5 | 0.00 | 0.00 | 0.00 | 69 | 1015.4 |
| 20260507133018 | 56 | 213 | 1.7 | 3.5 | 0.00 | 0.00 | 0.00 | 71 | 1015.4 |
| 20260507132016 | 54 | 149 | 0.9 | 2.6 | 0.00 | 0.00 | 0.00 | 74 | 1015.4 |
| 20260507131026 | 54 | 193 | 0.9 | 2.6 | 0.00 | 0.00 | 0.00 | 75 | 1015.4 |
| 20260507130030 | 53 | 302 | 0.9 | 1.7 | 0.00 | 0.00 | 0.00 | 78 | 1015.4 |
| 20260507125015 | 51 | 226 | 0.9 | 3.5 | 0.00 | 0.00 | 0.00 | 83 | 1015.4 |
| 20260507124019 | 48 | 0.0 | 0.0 | 0.00 | 0.00 | 0.00 | 89 | 1015.4 | |
| 20260507123043 | 45 | 0.0 | 0.0 | 0.00 | 0.00 | 0.00 | 94 | 1015.5 | |
| 20260507122026 | 44 | 0.0 | 0.0 | 0.00 | 0.00 | 0.00 | 98 | 1015.5 | |
| 20260507121030 | 42 | 0.0 | 0.0 | 0.00 | 0.00 | 0.00 | 99 | 1015.4 | |
| 20260507120015 | 41 | 0.0 | 0.0 | 0.00 | 0.00 | 0.00 | 99 | 1015.4 | |
| 20260507115019 | 40 | 0.0 | 0.0 | 0.00 | 0.00 | 0.00 | 99 | 1015.4 | |
| 20260507114102 | 39 | 0.0 | 0.0 | 0.00 | 0.00 | 0.00 | 99 | 1015.4 | |
| 20260507113046 | 39 | 0.0 | 0.0 | 0.00 | 0.01 | 0.00 | 99 | 1015.3 | |
| 20260507112029 | 38 | 0.0 | 0.0 | 0.00 | 0.01 | 0.00 | 99 | 1015.2 | |
| 20260507111015 | 37 | 0.0 | 0.0 | 0.00 | 0.01 | 0.00 | 99 | 1015.2 | |
| 20260507110019 | 36 | 0.0 | 0.0 | 0.00 | 0.01 | 0.00 | 99 | 1015.0 | |
| 20260507105022 | 36 | 0.0 | 0.0 | 0.00 | 0.01 | 0.00 | 99 | 1015.0 | |
| 20260507104026 | 35 | 0.0 | 0.0 | 0.00 | 0.01 | 0.00 | 99 | 1014.9 | |
| 20260507103029 | 35 | 0.0 | 0.0 | 0.00 | 0.01 | 0.00 | 99 | 1014.9 | |
| 20260507102015 | 36 | 0.0 | 0.0 | 0.00 | 0.01 | 0.00 | 99 | 1014.9 | |
| 20260507101018 | 36 | 0.0 | 0.0 | 0.00 | 0.01 | 0.00 | 99 | 1014.9 | |
| 20260507100022 | 36 | 0.0 | 0.0 | 0.00 | 0.01 | 0.00 | 99 | 1014.9 |